Miscellaneous Local Product
Issued by NWS North Platte, NE

Home | Current Version | Previous Version | Text Only | Print | Product List | Glossary On
Versions: 1 2 3 4 5 6 7 8 9 10 11 12 13 14 15 16 17 18 19 20 21 22 23 24 25 26 27 28 29 30 31 32 33 34 35 36 37 38 39 40 41 42 43 44 45 46 47 48 49 50
000
AXUS43 KLBF 221110
MISLBF


WESTERN AND NORTH CENTRAL NEBRASKA HOURLY WEATHER ROUNDUP
NATIONAL WEATHER SERVICE NORTH PLATTE NE
600 AM CDT TUE APR 22 2014

***STATIONS NOT REPORTING VARIABLES SUCH AS SKY/WEATHER OR
PRESSURE ARE PROVIDED BY THE NEBRASKA DEPARTMENT OF
ROADS...RAWS...AND APRS NETWORKS...AND ARE NOT UNDER
NATIONAL WEATHER SERVICE QUALITY CONTROL***

...OBSERVATIONS IN AND NEAR THE EASTERN PANHANDLE OF NEBRASKA...

CITY           SKY/WX    TMP DP  RH WIND       PRES   REMARKS
PINE RIDGE     PTCLDY    53  25  33 S24G38    29.95F
CHADRON        PTCLDY    52  30  43 S25G33    29.91F
ALLIANCE       PTCLDY    45  29  53 S18       30.01F
SIDNEY         CLEAR     49  32  52 S17       30.05F
WHITECLAY        N/A     50  25  38 S20         N/A
CRESCENT LAKE    N/A     45  29  54 S13         N/A
LISCO            N/A     48  27  43 E15         N/A
BIG SPRINGS      N/A     47  33  57 S16         N/A
LEWELLEN         N/A     44  24  45 E8          N/A
$$

...OBSERVATIONS IN SOUTHWEST NEBRASKA AND FAR NORTHEAST COLORADO...

CITY           SKY/WX    TMP DP  RH WIND       PRES   REMARKS
WRAY           FAIR      47  33  58 S7        30.11F
HOLYOKE        FAIR      41  32  70 S8        30.10S
IMPERIAL       CLEAR     42  29  59 SE10      30.11F
OGALLALA       CLEAR     45  28  50 E5        30.09F
NORTH PLATTE   CLEAR     34  28  79 SE6       30.12F WCI  29
MCCOOK         PTCLDY    45  29  53 SE8       30.13F
LEXINGTON      CLEAR     41  31  69 SE3       30.14S
PAXTON           N/A     41  29  61 CALM        N/A
SUTHERLAND       N/A     37  24  60 S6          N/A  WCI  32
GOTHENBURG       N/A     42  30  63 CALM        N/A
CALLAWAY         N/A     38  29  70 S7          N/A  WCI  33
$$

...OBSERVATIONS IN NORTH CENTRAL NEBRASKA...

CITY           SKY/WX    TMP DP  RH WIND       PRES   REMARKS
VALENTINE      CLEAR     43  29  57 SE7       30.08F
THEDFORD       PTCLDY    46  28  49 S8        30.11F
AINSWORTH      PTCLDY    40  32  71 S8        30.10F
O`NEILL        PTCLDY    40  29  65 S6        30.13F
ORD            CLEAR     32  27  81 CALM      30.13F
BROKEN BOW     PTCLDY    32  28  85 CALM      30.13F
BROWNLEE         N/A     46  29  51 S12         N/A
SPRINGVIEW       N/A     36  31  82 CALM        N/A
DUNNING          N/A     38  30  71 CALM        N/A
BREWSTER         N/A     35  29  77 CALM        N/A
ROSE             N/A     42  33  70 E5          N/A
NEWPORT          N/A     41  34  77 S6          N/A
COMSTOCK         N/A     41  31  68 S6          N/A
EWING            N/A     36  28  73 CALM        N/A
$$

...SOME WEATHER OBSERVATIONS FROM AROUND THE REGION...

CITY           SKY/WX    TMP DP  RH WIND       PRES   REMARKS
DENVER         PTCLDY    50  33  52 CALM      30.04F
LARAMIE        PTCLDY    36  25  64 S12       30.07F WCI  28
CHEYENNE       PTCLDY    41  33  73 W6        30.05F
SCOTTSBLUFF    CLEAR     45  30  55 E10       29.99F
RAPID CITY     CLEAR     37  28  70 SE8       29.95F WCI  31
PIERRE         CLEAR     36  31  82 E9        30.07F WCI  29
WINNER         FAIR      41  29  62 S7        30.08F
SIOUX FALLS    CLEAR     30  26  85 CALM      30.15S
OMAHA          CLEAR     40  33  76 N5        30.16S
GRAND ISLAND   CLEAR     40  31  70 E3        30.15S
KANSAS CITY    CLEAR     43  33  68 N9        30.12R
WICHITA        CLEAR     53  29  39 NE8       30.13S
HAYS           CLEAR     41  28  60 CALM      30.15S
LIBERAL        CLEAR     48  30  49 SE5       30.17F
GOODLAND       CLEAR     43  31  62 S13       30.14F
$$



USA.gov is the U.S. government's official web portal to all federal, state and local government web resources and services.